[[{"header":{"parameterUnit":"m.s-1","parameterCategory":1,"la1":30.2991,"la2":30.254,"lo1":-89.0895,"lo2":-89.0444,"dy":0.0017,"dx":0.0017,"nx":28,"ny":28,"refTime":"2024-06-19T09:00:00:Z","depth":0,"parameterNumber":2,"parameterNumberName":"U-component_of_WINDS"},"data":[0,0,0,0,0,0,0,0,0,0,0,0,0,0,0,0,0,0,0,0,0,0,0,0,0,0,0,0,0,0,0,0,0,0,0,0,0,0,0,0,0,0,0,0,0,0,0,0,0,0,0,0,0,0,0,0,0,0,-5.5576,-5.5576,0,-5.5602,-5.5602,-5.5602,-5.5466,-5.5462,-5.5458,-5.5454,-5.548,-5.5484,-5.5489,0,0,0,0,0,0,0,0,0,0,0,0,0,-5.541,-5.5413,-5.5576,-5.5576,-5.5576,-5.5602,-5.5602,-5.5602,-5.5467,-5.5462,-5.5457,-5.5453,-5.5479,-5.5484,-5.5489,0,0,0,0,0,0,0,0,0,0,0,0,0,-5.5463,-5.5415,-5.5576,-5.5512,-5.5506,-5.5602,-5.5602,-5.5602,-5.5468,-5.5462,-5.5456,-5.545,-5.5477,-5.5483,-5.549,-5.5647,0,0,-5.551,-5.5512,0,0,0,0,0,0,0,0,-5.5461,-5.547,-5.5521,-5.5516,-5.551,-5.5524,-5.5553,-5.5617,-5.5469,-5.5482,-5.5454,-5.5447,-5.55,-5.5504,-5.5522,-5.5649,-5.565,-5.551,-5.5514,-5.5517,-5.5519,0,0,0,0,0,0,0,-5.5457,-5.5468,-5.5586,-5.5522,-5.5515,-5.5482,-5.5483,-5.5564,-5.5524,-5.5481,-5.5471,-5.5476,-5.5496,-5.5516,-5.5521,-5.565,-5.551,-5.5516,-5.552,-5.5522,-5.5908,-5.5914,0,0,0,0,0,0,-5.5462,-5.5466,-5.5585,-5.5587,-5.5471,-5.549,-5.5491,-5.5526,-5.5522,-5.5516,-5.5481,-5.5469,-5.5507,-5.5514,-5.5522,-5.5705,-5.5517,-5.5523,-5.5527,-5.5902,-5.591,-5.5917,0,0,0,0,0,0,-5.5459,-5.5474,-5.5584,-5.5524,-5.5535,-5.5499,-5.5539,-5.553,-5.5549,-5.5522,-5.5514,-5.5509,-5.5503,-5.5512,-5.5617,-5.5704,-5.5526,-5.5532,-5.5895,-5.5904,-5.5913,-5.6074,0,0,0,0,0,0,-5.5455,-5.5473,-5.5532,-5.5526,-5.5539,-5.5679,-5.5545,-5.5534,-5.5561,-5.5546,-5.5546,-5.5541,-5.5499,-5.5608,-5.5624,-5.571,-5.5537,-5.5887,-5.5899,-5.591,-5.6061,-5.6088,-5.6111,0,0,0,0,0,-5.5449,-5.5576,-5.5536,-5.5551,-5.5612,-5.5685,-5.5692,-5.5641,-5.5569,-5.5628,-5.5611,-5.5541,-5.5693,-5.562,-5.5636,-5.5726,-5.5881,-5.5895,-5.5909,-5.6049,-5.6082,-5.611,0,0,0,0,0,0,-5.5593,-5.5574,-5.5529,-5.5658,-5.5674,-5.5661,-5.5734,-5.5678,-5.5715,-5.5699,-5.5636,-5.5637,-5.5753,-5.575,-5.5669,-5.5878,-5.5774,-5.5792,-5.5875,-5.5906,-5.5931,-5.5928,-5.5542,0,0,0,0,0,-5.564,-5.5701,-5.5681,-5.5797,-5.5808,-5.5771,-5.58,-5.576,-5.5774,-5.578,-5.577,-5.5786,-5.5837,-5.5872,-5.5918,-5.6061,-5.6059,-5.6131,-5.6156,-5.6177,-5.6192,-5.6267,-5.6299,-5.5964,-5.5963,-5.5963,0,0,-5.5737,-5.5735,-5.5776,-5.5826,-5.5833,-5.5898,-5.5776,-5.5849,-5.5896,-5.579,-5.5888,-5.5883,-5.5897,-5.6021,-5.6076,-5.6023,-5.6285,-5.6195,-5.6212,-5.6216,-5.6285,-5.6317,-5.6345,-5.5973,-5.5972,-5.597,0,0,-5.5946,-5.5951,-5.6048,-5.6059,-5.6072,-5.6047,-5.6071,-5.6067,-5.6059,-5.6157,-5.608,-5.6135,-5.6225,-5.6238,-5.6256,-5.6475,-5.6411,-5.6492,-5.6622,-5.6696,-5.6722,-5.6745,-5.6821,-5.685,-5.6508,-5.6509,-5.6509,0,-5.6064,-5.6158,-5.6104,-5.6183,-5.6207,-5.6116,-5.6214,-5.6227,-5.6255,-5.6274,-5.6215,-5.6326,-5.6329,-5.6455,-5.6509,-5.6528,-5.6552,-5.6489,-5.6723,-5.6745,-5.6766,-5.6838,-5.6867,-5.6518,-5.6517,-5.6516,-5.6515,0,-5.6302,-5.6369,-5.6445,-5.6475,-5.6508,-5.6596,-5.6556,-5.6597,-5.6556,-5.6537,-5.6639,-5.664,-5.6684,-5.6712,-5.6672,-5.6834,-5.68,-5.6734,-5.6627,-5.6808,-5.6875,-5.6902,-5.6532,-5.6528,-5.6525,-5.6523,0,0,-5.6598,-5.66,-5.6628,-5.6641,-5.6651,-5.6701,-5.6786,-5.683,-5.6865,-5.689,-5.6958,-5.7038,-5.6977,-5.6998,-5.696,-5.7026,-5.7197,-5.695,-5.695,-5.6994,-5.7374,-5.7421,-5.7454,-5.7157,-5.7162,-5.7166,-5.7372,0,-5.68,-5.6943,-5.69,-5.7044,-5.7105,-5.7022,-5.7096,-5.711,-5.7097,-5.7146,-5.7131,-5.7188,-5.7104,-5.7116,-5.7178,-5.7163,-5.7272,-5.7148,-5.7219,-5.7222,-5.7214,-5.7489,-5.7539,-5.7733,-5.7397,-5.7402,-5.7405,0,-5.7054,-5.7089,-5.724,-5.7241,-5.7264,-5.7331,-5.7369,-5.7418,-5.7434,-5.7419,-5.7445,-5.7394,-5.7477,-5.7374,-5.7488,-5.7405,-5.7432,-5.743,-5.7436,-5.7438,-5.7322,-5.7495,-5.7793,-5.7821,-5.7446,-5.7442,-5.744,0,-5.7252,-5.7337,-5.7437,-5.7452,-5.7456,-5.7505,-5.7509,-5.7519,-5.7549,-5.7583,-5.7601,-5.7645,-5.7668,-5.7703,-5.7665,-5.7594,-5.7785,-5.7679,-5.7774,-5.7775,-5.7815,-5.7812,-5.8118,-5.7839,-5.7838,-5.7838,-5.7837,0,-5.748,-5.7575,-5.7526,-5.7588,-5.7693,-5.7643,-5.7748,-5.7743,-5.7753,-5.7813,-5.7745,-5.7803,-5.7751,-5.7804,-5.7776,-5.7874,-5.7886,-5.7876,-5.7866,-5.788,-5.7881,-5.7894,-5.7878,-5.7845,-5.7843,-5.7842,-5.7841,0,-5.7716,-5.7688,-5.7792,-5.7789,-5.7791,-5.7868,-5.7865,-5.7922,-5.7906,-5.7982,-5.7997,-5.7971,-5.803,-5.7997,-5.8058,-5.8039,-5.8166,-5.814,-5.816,-5.8152,-5.8249,-5.824,-5.8571,-5.8612,-5.8309,-5.8312,-5.8315,0,-5.7862,-5.7933,-5.7939,-5.7974,-5.7983,-5.8041,-5.8072,-5.8027,-5.8062,-5.8087,-5.8141,-5.8195,-5.8235,-5.8334,-5.832,-5.8367,-5.834,-5.8453,-5.8346,-5.8358,-5.8339,-5.8334,-5.834,-5.8473,-5.8477,-5.848,-5.8482,0,-5.8123,-5.8106,-5.8153,-5.8196,-5.8235,-5.8267,-5.8292,-5.8326,-5.8281,-5.8324,-5.8384,-5.8416,-5.8479,-5.8533,-5.8574,-5.8579,-5.8524,-5.8517,-5.8541,-5.8554,-5.8562,-5.8557,-5.8216,-5.8508,-5.8506,-5.8504,-5.8502,-5.8501,-5.8317,-5.8376,-5.839,-5.8444,-5.846,-5.8486,-5.854,-5.8531,-5.8581,-5.8628,-5.86,-5.8671,-5.8686,-5.8736,-5.8748,-5.8803,-5.8757,-5.8793,-5.8801,-5.881,-5.8822,-5.8557,-5.8811,-5.881,-5.8809,-5.8808,-5.8808,0,-5.8572,-5.8577,-5.8629,-5.8668,-5.8711,-5.8658,-5.8685,-5.8725,-5.8788,-5.8808,-5.8849,-5.8919,-5.8973,-5.8965,-5.9013,-5.9059,-5.9035,-5.9073,-5.9067,-5.9069,-5.8861,-5.8834,-5.9091,-5.9091,-5.9091,-5.9091,-5.9091,-5.9091,-5.8709,-5.8807,-5.8793,-5.8898,-5.8903,-5.8972,-5.8991,-5.9016,-5.9031,-5.9113,-5.9157,-5.9152,-5.9161,-5.921,-5.9257,-5.9253,-5.9273,-5.932,-5.9307,-5.9112,-5.9084,-5.9057,-5.9031,-5.9325,-5.9326,-5.951,-5.9511,-5.9513]},{"header":{"parameterUnit":"m.s-1","parameterCategory":1,"la1":30.2991,"la2":30.254,"lo1":-89.0895,"lo2":-89.0444,"dy":0.0017,"dx":0.0017,"nx":28,"ny":28,"refTime":"2024-06-19T09:00:00:Z","depth":0,"parameterNumber":3,"parameterNumberName":"V-component_of_WINDS"},"data":[0,0,0,0,0,0,0,0,0,0,0,0,0,0,0,0,0,0,0,0,0,0,0,0,0,0,0,0,0,0,0,0,0,0,0,0,0,0,0,0,0,0,0,0,0,0,0,0,0,0,0,0,0,0,0,0,0,0,2.4016,2.4016,0,2.4043,2.4043,2.4043,2.4083,2.4084,2.4084,2.4085,2.4108,2.4108,2.4108,0,0,0,0,0,0,0,0,0,0,0,0,0,2.3996,2.3996,2.4016,2.4016,2.4016,2.4043,2.4043,2.4044,2.4083,2.4084,2.4085,2.4085,2.4108,2.4108,2.4108,0,0,0,0,0,0,0,0,0,0,0,0,0,2.4011,2.3996,2.4016,2.4039,2.4042,2.4043,2.4043,2.4044,2.4083,2.4084,2.4085,2.4086,2.4108,2.4108,2.4108,2.4087,0,0,2.4108,2.4108,0,0,0,0,0,0,0,0,2.401,2.4012,2.4036,2.4038,2.404,2.4061,2.4045,2.4058,2.4082,2.4067,2.4085,2.4086,2.4091,2.4093,2.4095,2.4088,2.4089,2.4108,2.4108,2.4108,2.4108,0,0,0,0,0,0,0,2.4009,2.4011,2.4026,2.4036,2.4039,2.4048,2.4051,2.4047,2.4073,2.4068,2.4071,2.4074,2.4093,2.4095,2.4096,2.409,2.4108,2.4108,2.4108,2.4108,2.4067,2.4066,0,0,0,0,0,0,2.4005,2.401,2.4026,2.4027,2.4028,2.4047,2.4051,2.4053,2.4073,2.4077,2.4073,2.4076,2.4095,2.4096,2.4097,2.4074,2.4108,2.4108,2.4108,2.4068,2.4067,2.4066,0,0,0,0,0,0,2.4005,2.4006,2.4024,2.4019,2.4023,2.4047,2.4048,2.4053,2.4056,2.4077,2.4081,2.4071,2.4096,2.4097,2.409,2.4075,2.4108,2.4108,2.4069,2.4068,2.4066,2.4026,0,0,0,0,0,0,2.4004,2.4006,2.3998,2.4019,2.4023,2.4017,2.4047,2.4053,2.4056,2.406,2.4076,2.408,2.4097,2.409,2.409,2.4076,2.4108,2.4071,2.4069,2.4067,2.4029,2.4024,2.4019,0,0,0,0,0,2.4003,2.3985,2.3998,2.3999,2.4014,2.4016,2.4018,2.4039,2.4055,2.4047,2.4061,2.4079,2.4077,2.4089,2.4089,2.4075,2.4072,2.4069,2.4067,2.4031,2.4025,2.4019,0,0,0,0,0,0,2.396,2.3988,2.4002,2.3991,2.4001,2.4023,2.4014,2.4031,2.4036,2.4039,2.4064,2.4068,2.4057,2.4065,2.4077,2.4056,2.4077,2.4075,2.405,2.4044,2.4039,2.4036,2.4108,0,0,0,0,0,2.3949,2.395,2.3974,2.3961,2.3966,2.3989,2.3991,2.4007,2.4017,2.4021,2.4035,2.4044,2.4045,2.4045,2.4048,2.4031,2.4035,2.4022,2.4017,2.4013,2.4009,2.4002,2.3996,2.4058,2.4058,2.4058,0,0,2.3927,2.3942,2.3941,2.3953,2.3963,2.3962,2.3992,2.399,2.3989,2.4021,2.4015,2.4025,2.4037,2.4025,2.402,2.4031,2.3994,2.401,2.4006,2.4005,2.3999,2.3993,2.3987,2.4056,2.4056,2.4057,0,0,2.3885,2.3897,2.3888,2.3898,2.3913,2.3929,2.3927,2.3947,2.3955,2.395,2.3974,2.3974,2.3976,2.3983,2.3987,2.3951,2.3968,2.3951,2.3924,2.3916,2.3911,2.3907,2.3893,2.3888,2.3949,2.3948,2.3948,0,2.3854,2.3855,2.3881,2.3878,2.3882,2.3913,2.3904,2.3912,2.3926,2.3929,2.3942,2.3946,2.3956,2.3946,2.3938,2.394,2.3938,2.3948,2.391,2.3906,2.3902,2.389,2.3885,2.3946,2.3947,2.3947,2.3947,0,2.3817,2.3817,2.3808,2.3823,2.3827,2.382,2.3845,2.3846,2.3862,2.3876,2.3871,2.3884,2.389,2.389,2.3904,2.3882,2.3889,2.3906,2.3928,2.3894,2.3882,2.3878,2.3943,2.3944,2.3945,2.3945,0,0,2.3746,2.3778,2.3774,2.3781,2.3802,2.3802,2.3797,2.3805,2.3805,2.3815,2.381,2.3813,2.3829,2.3834,2.385,2.3843,2.3813,2.3861,2.3862,2.3851,2.3789,2.3775,2.3769,2.3826,2.3825,2.3824,2.3788,0,2.3707,2.3702,2.3726,2.3713,2.3714,2.3745,2.3741,2.3752,2.3766,2.3768,2.3783,2.3784,2.3806,2.3809,2.3804,2.3818,2.3801,2.3821,2.3821,2.382,2.3815,2.3763,2.3748,2.3713,2.3784,2.3783,2.3782,0,2.366,2.367,2.3658,2.368,2.3681,2.3677,2.3687,2.3689,2.3703,2.3713,2.372,2.3739,2.3736,2.3758,2.3753,2.3766,2.3768,2.3775,2.3775,2.3774,2.3798,2.376,2.3703,2.3697,2.3776,2.3776,2.3777,0,2.3609,2.3618,2.3613,2.3619,2.3645,2.3641,2.3651,2.3667,2.367,2.3679,2.3681,2.3689,2.3692,2.3697,2.3718,2.3733,2.371,2.3734,2.3717,2.3717,2.3709,2.3709,2.365,2.3713,2.3713,2.3713,2.3713,0,2.3562,2.3553,2.359,2.3586,2.3578,2.3606,2.3597,2.361,2.3624,2.3623,2.365,2.3648,2.3677,2.3678,2.3695,2.3688,2.3689,2.3697,2.3701,2.3693,2.3692,2.3693,2.3696,2.3712,2.3712,2.3712,2.3713,0,2.3502,2.3526,2.3522,2.3548,2.3555,2.3547,2.3569,2.3566,2.3583,2.3582,2.3583,2.3608,2.3611,2.3634,2.3641,2.3652,2.3639,2.3648,2.3634,2.3637,2.3618,2.3619,2.3556,2.3549,2.3618,2.3617,2.3616,0,2.3469,2.3464,2.349,2.3492,2.3502,2.3505,2.3509,2.3538,2.3541,2.3558,2.3553,2.3559,2.3564,2.3568,2.3586,2.3592,2.3601,2.3579,2.3602,2.3595,2.36,2.3599,2.3599,2.3573,2.3572,2.3572,2.3571,0,2.3409,2.3422,2.3428,2.3439,2.3444,2.3454,2.3465,2.3464,2.3496,2.3498,2.3502,2.3507,2.3516,2.3521,2.3531,2.3541,2.356,2.3564,2.3561,2.3552,2.3544,2.3547,2.3619,2.3565,2.3566,2.3566,2.3566,2.3567,2.3361,2.3358,2.3376,2.3383,2.3394,2.3405,2.3404,2.3421,2.3426,2.3437,2.3453,2.3455,2.347,2.3486,2.3494,2.3496,2.3507,2.3502,2.35,2.3498,2.3494,2.3545,2.3498,2.3498,2.3498,2.3498,2.3499,0,2.3301,2.3316,2.3321,2.3337,2.3342,2.3363,2.3377,2.3379,2.3381,2.3394,2.3401,2.3406,2.3411,2.3431,2.3439,2.3436,2.3446,2.3437,2.3437,2.3438,2.3484,2.3486,2.343,2.343,2.343,2.343,2.343,2.343,2.3271,2.3267,2.3282,2.3284,2.3298,2.3302,2.3308,2.3317,2.3328,2.3334,2.3339,2.3353,2.3369,2.3378,2.3384,2.339,2.3391,2.3379,2.3387,2.3429,2.3435,2.3441,2.3444,2.3379,2.3379,2.3342,2.3341,2.3341]}]]